Zurück zum Katalog

FENGYUN 1C DEB

AktivSSO
NORAD 31054·DEBRIS·🇨🇳 China

Gestartet May 10, 1999 von Taiyuan Satellite Launch Center

Loading…

Nächste Überflüge (nächste 24 Stunden)

TLE

AktuellSource: Space-Track

Epoche: Sep 14, 2026, 00:29 UTC

1 31054U 99025BEY 26257.02065519  .00000125  00000-0  91127-4 0  9990
2 31054  98.6844 266.5766 0010827  62.9405 354.9287 14.12314029  6322

Verfolge FENGYUN 1C DEB in Echtzeit mit AllMySat

Download on the App Store